FENGYUN 1C DEB, 29955

Orbit data source: Space-Track

FENGYUN 1C DEB, 29955 is space debris in SSO originally from a launch on Mon, 10 May 1999 UTC launched from the Taiyaun Space Center, China (TSC). Fengyun 1C debris stems from the Chinese weather satellite Fengyun-1C, which was intentionally destroyed by a Chinese anti-satellite missile in 2007. This event dramatically increased the amount of space debris, with thousands of trackable fragments posing hazards to satellites and human spaceflight. The Fengyun 1C debris cloud has become a focal point in discussions about space sustainability and the need for international regulations to prevent the creation of new debris.

Loading next visibility...
Identifier
29955, 1999-025KD
Orbit
SSO
Country
Flag of CNCN / PRC
Related business
Manufacturer
Unknown
Mission
Spacecraft
Bus & Motor
Unknown
Mass
Unknown
Launch date (UTC)
1999-05-10 (27 years ago)
Launch vehicle
Unknown
Launch site
Taiyaun Space Center, China (TSC)
Object type
Payload
Rocket body
Debris
Shape & HBR
Unknown shape, 0.1 m
Radar Cross Section
Medium (>0.1 m² and <1 m²)

Expand to show TLE details & history
Last TLE update: 9 hours ago

TLE from 9 hours ago
0 FENGYUN 1C DEB
1 29955U 99025KD  26170.53951565  .00002977  00000-0  96296-3 0  9990
2 29955  99.2689 271.3215 0008094  77.5942 301.6738 14.39880461  7741
Epoch: 2026-06-19T12:56Z
TLE epoch observation values (Epoch: 2026-06-19T12:56:54.152Z)
Latitude
18.92706°
Longitude
166.13793°
Altitude
758.286 km
Speed
7.478 km/s
True Right ascension
17h 52m 31s
True Declination
18° 49' 18"
Sunlit
Object was in full shadow at epoch
Visualization orbit readout
Latitude
Unknown
Longitude
Unknown
Altitude
Unknown
Speed
Unknown
Apparent Right ascension
Unknown
Apparent Declination
Unknown
Sunlit
N/A
Visualization observer readout
Local Sidereal Time
08:48:42
Azimuth
Unknown
Elevation
Unknown
Doppler factor
Unknown
Orbital elements
Apogee altitude
761.828 km
Perigee altitude
750.279 km
Semi-major axis
7,134.19 km
Eccentricity
0.00081
Inclination
99.2689°
RAAN
271.3215°
Arg. of periapsis
77.5942°
True anomaly
301.59482°
Mean anomaly
301.6738°
Eccentric anomaly
301.63432°
Mean motion
3.60185 °/min
Orbital period
99.95 mins
BSTAR
0.00096296
Loading maneuver chart data...
Computing Atmospheric mass density...

Documentation

Showing up to 5 results
|